Regional Weather Roundup
Issued by NWS Newport/Morehead, NC

Current Version | Previous Version | Text Only | Print | Product List | Glossary On
Versions: 1 2 3 4 5 6 7 8 9 10 11 12 13 14 15 16 17 18 19 20 21 22 23 24 25 26 27 28 29 30 31 32 33 34 35 36 37 38 39 40 41 42 43 44 45 46 47 48 49 50
000
ASUS42 KMHX 291013
RWRMHX
WEATHER ROUNDUP FOR EASTERN NORTH CAROLINA
NATIONAL WEATHER SERVICE NEWPORT/MOREHEAD CITY NC
600 AM EDT FRI MAY 29 2015

NOTE: "FAIR" INDICATES FEW OR NO CLOUDS BELOW 12,000 FEET
WITH NO SIGNIFICANT WEATHER AND/OR OBSTRUCTIONS TO VISIBILITY

NCZ015>017-031-032-045>047-102-103-291100-
NORTH COAST

CITY           SKY/WX    TMP DP  RH WIND       PRES   REMARKS
EDENTON        CLEAR     64  62  93 CALM      30.22S
ELIZABETH CITY PTCLDY    65  63  93 CALM      30.23R
KITTY HAWK       N/A     65  63  93 CALM      30.22R
MANTEO         CLEAR     62  61  96 CALM      30.24R

$$

NCZ045>047-081-094-103-104-291100-
CENTRAL COAST

CITY           SKY/WX    TMP DP  RH WIND       PRES   REMARKS
FRISCO         MOCLDY    69  64  84 N3        30.22R
SWANQUARTER      N/A     61 N/A N/A NE3       30.18S

$$

NCZ095-097-098-100-101-291100-
SOUTHERN COAST

CITY           SKY/WX    TMP DP  RH WIND       PRES   REMARKS
BEAUFORT       CLEAR     64  62  93 NE6       30.21R
CEDAR ISLAND     N/A     66 N/A N/A N1        30.27R
JACKSONVILLE   CLEAR     61  59  93 CALM      30.20S
PINEY ISLAND   SUNNY    N/A N/A N/A CALM      30.22R
WILMINGTON     CLEAR     61  59  93 CALM      30.19S


$$

NCZ011>013-027>030-043-044-078>080-089-090>093-098-291100-
COASTAL PLAIN

CITY           SKY/WX    TMP DP  RH WIND       PRES   REMARKS
AHOSKIE        PTCLDY    64  62  91 CALM      30.22S
CLINTON        PTCLDY    64  64 100 CALM      30.21R
ELIZABETHTOWN  CLEAR     63  63 100 CALM      30.20R
GOLDSBORO      PTCLDY    65  63  93 CALM      30.19S
GREENVILLE     PTCLDY    66  63  88 CALM      30.22S
HAVELOCK       CLEAR     61  58  90 CALM      30.22S
KENANSVILLE    CLEAR     60  59  96 CALM      30.22S
KINSTON        CLEAR     65  63  90 CALM      30.22S
NEW BERN       CLEAR     60  57  89 CALM      30.23R
RICHLANDS      CLEAR     57  54  88 CALM      30.21S
ROCKY MOUNT    PTCLDY    66  64  93 CALM      30.22R
WASHINGTON     CLEAR     62  61  94 CALM      30.23R
WHITEVILLE     CLEAR     61  60  94 CALM      30.19R

$$

AMZ130-135-150-152-154-156-158-170-250-252-270-ANZ085-086-088-633-658-670-291100-
MARINE OBSERVATIONS

STATION/POSITION TIME  TEMP    WIND        PRES    WAVE   SWELL
                       AIR SEA DIR/SP/G            HT/PER HT/PER
                 (UTC) (F)     (DEG/KT/KT) (MB)    (FT/S) (FT/S)
CHESAPEAKE LIGHT 0900   69     200/ 10/ 10 1024.0
64 E VA BEACH    0950   66 65  100/  4/  6 1023.5    3/ 9   3/ 9
DUCK             0900   65 56  160/  2/  2 1022.4
2 E DUCK         0911      60                N/A     3/ 9
OREGON INLET     0900   70 77  360/  3/  4 1023.3
13E OREGON INLT  1000      74                N/A     3/ 9
HATTERAS CG      0900   72 76   30/  2/  2 1022.5
DIAMOND BUOY     0950   76 76  120/  4/  8 1023.1    4/ 9   3/ 9
CAPE LOOKOUT     1000   72      50/  5/  5 1022.8
BEAUFORT LAB     0900   68 76   50/  4/  5 1021.9
27 SE WRIGHTSVLE 0900      75   50/  4/  6   N/A
5 SE WRIGHTSVLE  0908   75 77  100/  4/  6 1022.2
225 S CAPE HAT   0950   74 74   80/ 14/ 17 1020.6    5/ 8   3/ 8
41 SE CHARLESTON 0950   76 78   70/ 10/ 12 1020.3    4/ 9   3/ 9

$$


USA.gov is the U.S. government's official web portal to all federal, state and local government web resources and services.